Weather at Hatay Airport

Public forecast

Using degrees Celsius for public forecast. Weather courtesy of forecast.io.

Current aviation weather report (METAR) for Hatay Airport

Retrieved 2020/12/04 21:50 UTC (47 minutes ago):

LTDA 042150Z 11003KT 080V140 9999 SCT035 09/06 Q1020 NOSIG

Closest aviation forecast (TAF) to Hatay Airport

Forecast is more than 12 hours old.

Closest forecast is Aleppo International Airport, 46.9 nm (86.9 km) ESE. Retrieved 2012/10/26 18:35 UTC (8 years ago):

TAF OSAP 261700Z 2618/2718 24010KT 9999 SCT030 BKN100 BECMG 2620/2622 VRB03KT 3000 BR BECMG 2707/2709 24012KT 7000 SCT030 BKN100